Tracking 27112 objects as of 27-Mar-2023
HD Live streaming from Space Station
objects crossing your sky now

CZ-4B DEB

Track CZ-4B DEB now!
10-day predictions


NORAD ID: 37573
Int'l Code: 2008-026E
Perigee: 805.4 km
Apogee: 1,134.1 km
Inclination: 98.8 °
Period: 104.3 minutes
Semi major axis: 7340 km
RCS: 0.0013 m2 (small)
Launch date: May 27, 2008
Source: People's Republic of China (PRC)
Launch site: Taiyaun Space Center, China (TSC)

Note: This is SATELLITE DEBRIS
Your satellite tracking list
Your tracking list is empty




NASA's NSSDC Master Catalog

Two Line Element Set (TLE):
1 37573U 08026E   23086.24524951  .00000678  00000-0  56907-3 0  9993
2 37573  98.8205 188.6761 0223873  30.2720 358.9624 13.80356513729320
Source of the keplerian elements: AFSPC